Time,TemperatureF,DewpointF,PressureIn,WindDirection,WindDirectionDegrees,WindSpeedMPH,WindSpeedGustMPH,Humidity,HourlyPrecipIn,Conditions,Clouds,dailyrainin,SoftwareType,DateUTC
2013-01-18 00:02:00,35.0,28.0,29.88,ESE,105,1.0,7.0,76,0.00,,,0.01,,2013-01-18 00:02:00,
2013-01-18 00:11:00,35.0,28.0,29.88,ESE,105,1.0,7.0,76,0.00,,,0.01,,2013-01-18 00:11:00,
2013-01-18 00:23:00,35.0,28.0,29.87,ESE,103,1.0,5.0,76,0.00,,,0.01,,2013-01-18 00:23:00,
2013-01-18 00:32:00,35.0,28.0,29.87,ESE,103,1.0,5.0,76,0.00,,,0.01,,2013-01-18 00:32:00,
2013-01-18 00:42:00,35.0,28.0,29.87,ESE,103,1.0,5.0,76,0.00,,,0.01,,2013-01-18 00:42:00,
2013-01-18 00:52:00,35.0,28.0,29.87,ESE,104,1.0,5.0,76,0.00,,,0.01,,2013-01-18 00:52:00,
2013-01-18 01:02:00,35.0,29.0,29.85,East,98,2.0,5.0,77,0.00,,,0.01,,2013-01-18 01:02:00,
2013-01-18 01:12:00,35.0,29.0,29.85,East,98,2.0,5.0,77,0.00,,,0.01,,2013-01-18 01:12:00,
2013-01-18 01:22:00,35.0,29.0,29.85,ESE,104,1.0,4.0,78,0.00,,,0.01,,2013-01-18 01:22:00,
2013-01-18 01:32:00,35.0,29.0,29.85,ESE,104,1.0,4.0,78,0.00,,,0.01,,2013-01-18 01:32:00,
2013-01-18 01:42:00,35.0,29.0,29.85,ESE,104,1.0,4.0,78,0.00,,,0.01,,2013-01-18 01:42:00,
2013-01-18 01:52:00,35.0,29.0,29.84,East,98,1.0,6.0,78,0.00,,,0.01,,2013-01-18 01:52:00,
2013-01-18 02:02:00,34.0,28.0,29.83,East,101,2.0,6.0,78,0.00,,,0.01,,2013-01-18 02:02:00,
2013-01-18 02:12:00,34.0,28.0,29.83,East,101,2.0,6.0,78,0.00,,,0.01,,2013-01-18 02:12:00,
2013-01-18 02:22:00,34.0,28.0,29.83,East,101,2.0,6.0,78,0.00,,,0.01,,2013-01-18 02:22:00,
2013-01-18 02:32:00,34.0,28.0,29.83,East,92,2.0,7.0,79,0.00,,,0.01,,2013-01-18 02:32:00,
2013-01-18 02:42:00,34.0,28.0,29.83,East,92,2.0,7.0,79,0.00,,,0.01,,2013-01-18 02:42:00,
2013-01-18 02:53:00,34.0,28.0,29.83,East,100,2.0,6.0,80,0.00,,,0.01,,2013-01-18 02:53:00,
2013-01-18 03:02:00,34.0,28.0,29.82,East,101,2.0,8.0,80,0.00,,,0.01,,2013-01-18 03:02:00,
2013-01-18 03:12:00,34.0,28.0,29.82,East,101,2.0,8.0,80,0.00,,,0.01,,2013-01-18 03:12:00,
2013-01-18 03:22:00,34.0,28.0,29.82,East,101,2.0,8.0,80,0.00,,,0.01,,2013-01-18 03:22:00,
2013-01-18 03:32:00,34.0,29.0,29.81,ESE,103,2.0,8.0,82,0.00,,,0.01,,2013-01-18 03:32:00,
2013-01-18 03:42:00,34.0,29.0,29.81,ESE,103,2.0,8.0,82,0.00,,,0.01,,2013-01-18 03:42:00,
2013-01-18 03:52:00,33.0,28.0,29.81,East,99,2.0,7.0,82,0.00,,,0.01,,2013-01-18 03:52:00,
2013-01-18 04:02:00,33.0,28.0,29.81,East,99,2.0,7.0,82,0.00,,,0.01,,2013-01-18 04:02:00,
2013-01-18 04:11:00,33.0,28.0,29.81,East,99,2.0,7.0,82,0.00,,,0.01,,2013-01-18 04:11:00,
2013-01-18 04:22:00,33.0,28.0,29.81,ESE,106,2.0,9.0,83,0.00,,,0.01,,2013-01-18 04:22:00,
2013-01-18 04:32:00,33.0,29.0,29.80,ESE,104,2.0,7.0,84,0.00,,,0.01,,2013-01-18 04:32:00,
2013-01-18 04:42:00,33.0,29.0,29.80,ESE,104,2.0,7.0,84,0.00,,,0.01,,2013-01-18 04:42:00,
2013-01-18 04:52:00,33.0,29.0,29.78,ESE,107,2.0,9.0,85,0.00,,,0.01,,2013-01-18 04:52:00,
2013-01-18 05:03:00,33.0,29.0,29.78,ESE,107,2.0,9.0,85,0.00,,,0.01,,2013-01-18 05:03:00,
2013-01-18 05:11:00,33.0,29.0,29.78,ESE,107,2.0,9.0,85,0.00,,,0.01,,2013-01-18 05:11:00,
2013-01-18 05:22:00,33.0,29.0,29.77,ESE,105,1.0,8.0,85,0.00,,,0.01,,2013-01-18 05:22:00,
2013-01-18 05:32:00,32.0,28.0,29.77,ESE,105,1.0,7.0,85,0.00,,,0.01,,2013-01-18 05:32:00,
2013-01-18 05:42:00,32.0,28.0,29.77,ESE,105,1.0,7.0,85,0.00,,,0.01,,2013-01-18 05:42:00,
2013-01-18 05:52:00,32.0,28.0,29.77,ESE,105,1.0,7.0,85,0.00,,,0.01,,2013-01-18 05:52:00,
2013-01-18 06:02:00,32.0,28.0,29.77,East,98,2.0,8.0,85,0.00,,,0.01,,2013-01-18 06:02:00,
2013-01-18 06:12:00,32.0,28.0,29.77,East,98,2.0,8.0,85,0.00,,,0.01,,2013-01-18 06:12:00,
2013-01-18 06:22:00,32.0,28.0,29.76,East,100,3.0,8.0,86,0.00,,,0.01,,2013-01-18 06:22:00,
2013-01-18 06:32:00,31.0,27.0,29.74,East,99,3.0,9.0,86,0.00,,,0.01,,2013-01-18 06:32:00,
2013-01-18 06:42:00,31.0,27.0,29.74,East,99,3.0,9.0,86,0.00,,,0.01,,2013-01-18 06:42:00,
2013-01-18 06:52:00,31.0,27.0,29.74,East,99,3.0,9.0,86,0.00,,,0.01,,2013-01-18 06:52:00,
2013-01-18 07:02:00,31.0,27.0,29.72,East,99,2.0,8.0,86,0.00,,,0.01,,2013-01-18 07:02:00,
2013-01-18 07:11:00,31.0,27.0,29.72,East,99,2.0,8.0,86,0.00,,,0.01,,2013-01-18 07:11:00,
2013-01-18 07:22:00,30.0,26.0,29.72,East,97,3.0,10.0,86,0.00,,,0.01,,2013-01-18 07:22:00,
2013-01-18 07:32:00,30.0,26.0,29.72,East,97,3.0,10.0,86,0.00,,,0.01,,2013-01-18 07:32:00,
2013-01-18 07:42:00,30.0,26.0,29.72,East,97,3.0,10.0,86,0.00,,,0.01,,2013-01-18 07:42:00,
2013-01-18 07:52:00,30.0,26.0,29.71,East,93,5.0,15.0,86,0.00,,,0.01,,2013-01-18 07:52:00,
2013-01-18 08:02:00,29.0,25.0,29.70,East,95,5.0,13.0,85,0.00,,,0.01,,2013-01-18 08:02:00,
2013-01-18 08:11:00,29.0,25.0,29.70,East,95,5.0,13.0,85,0.00,,,0.01,,2013-01-18 08:11:00,
2013-01-18 08:22:00,29.0,25.0,29.71,East,99,3.0,11.0,86,0.00,,,0.01,,2013-01-18 08:22:00,
2013-01-18 08:32:00,29.0,25.0,29.71,East,99,3.0,11.0,86,0.00,,,0.01,,2013-01-18 08:32:00,
2013-01-18 08:42:00,29.0,25.0,29.71,East,99,3.0,11.0,86,0.00,,,0.01,,2013-01-18 08:42:00,
2013-01-18 08:53:00,29.0,25.0,29.70,East,98,3.0,12.0,86,0.00,,,0.01,,2013-01-18 08:53:00,
2013-01-18 09:02:00,28.0,25.0,29.70,East,98,4.0,12.0,89,0.00,,,0.01,,2013-01-18 09:02:00,
2013-01-18 09:12:00,28.0,25.0,29.70,East,98,4.0,12.0,89,0.00,,,0.01,,2013-01-18 09:12:00,
2013-01-18 09:22:00,28.0,25.0,29.70,East,98,4.0,12.0,89,0.00,,,0.01,,2013-01-18 09:22:00,
2013-01-18 09:32:00,28.0,26.0,29.69,East,96,3.0,12.0,92,0.00,,,0.01,,2013-01-18 09:32:00,
2013-01-18 09:42:00,28.0,26.0,29.69,East,96,3.0,12.0,92,0.00,,,0.01,,2013-01-18 09:42:00,
2013-01-18 09:52:00,28.0,26.0,29.67,East,95,4.0,12.0,93,0.00,,,0.01,,2013-01-18 09:52:00,
2013-01-18 10:02:00,28.0,26.0,29.66,East,98,4.0,10.0,93,0.00,,,0.01,,2013-01-18 10:02:00,
2013-01-18 10:12:00,28.0,26.0,29.66,East,98,4.0,10.0,93,0.00,,,0.01,,2013-01-18 10:12:00,
2013-01-18 10:22:00,28.0,26.0,29.66,East,98,4.0,10.0,93,0.00,,,0.01,,2013-01-18 10:22:00,
2013-01-18 10:32:00,28.0,26.0,29.65,East,99,4.0,10.0,93,0.00,,,0.01,,2013-01-18 10:32:00,
2013-01-18 10:42:00,28.0,26.0,29.65,East,99,4.0,10.0,93,0.00,,,0.01,,2013-01-18 10:42:00,
2013-01-18 10:52:00,28.0,26.0,29.64,East,94,5.0,13.0,93,0.00,,,0.01,,2013-01-18 10:52:00,
2013-01-18 11:02:00,28.0,26.0,29.64,East,94,5.0,13.0,93,0.00,,,0.01,,2013-01-18 11:02:00,
2013-01-18 11:11:00,28.0,26.0,29.64,East,94,5.0,13.0,93,0.00,,,0.01,,2013-01-18 11:11:00,
2013-01-18 11:22:00,28.0,27.0,29.63,East,98,5.0,12.0,94,0.00,,,0.01,,2013-01-18 11:22:00,
2013-01-18 11:32:00,28.0,27.0,29.62,East,97,5.0,12.0,94,0.00,,,0.01,,2013-01-18 11:32:00,
2013-01-18 11:42:00,28.0,27.0,29.62,East,97,5.0,12.0,94,0.00,,,0.01,,2013-01-18 11:42:00,
2013-01-18 11:52:00,28.0,27.0,29.61,East,99,4.0,11.0,95,0.00,,,0.01,,2013-01-18 11:52:00,
2013-01-18 12:02:00,28.0,27.0,29.61,East,99,4.0,11.0,95,0.00,,,0.01,,2013-01-18 12:02:00,
2013-01-18 12:11:00,28.0,27.0,29.61,East,99,4.0,11.0,95,0.00,,,0.01,,2013-01-18 12:11:00,
2013-01-18 12:22:00,28.0,27.0,29.60,East,95,4.0,11.0,95,0.00,,,0.01,,2013-01-18 12:22:00,
2013-01-18 12:32:00,28.0,27.0,29.59,East,100,3.0,9.0,95,0.00,,,0.01,,2013-01-18 12:32:00,
2013-01-18 12:42:00,28.0,27.0,29.59,East,100,3.0,9.0,95,0.00,,,0.01,,2013-01-18 12:42:00,
2013-01-18 12:52:00,28.0,27.0,29.59,East,100,3.0,9.0,95,0.00,,,0.01,,2013-01-18 12:52:00,
2013-01-18 13:02:00,28.0,27.0,29.57,East,95,4.0,11.0,95,0.00,,,0.01,,2013-01-18 13:02:00,
2013-01-18 13:12:00,28.0,27.0,29.57,East,95,4.0,11.0,95,0.00,,,0.01,,2013-01-18 13:12:00,
2013-01-18 13:22:00,28.0,27.0,29.57,East,95,4.0,12.0,95,0.00,,,0.01,,2013-01-18 13:22:00,
2013-01-18 13:33:00,28.0,27.0,29.55,East,94,5.0,13.0,94,0.00,,,0.01,,2013-01-18 13:33:00,
2013-01-18 13:42:00,28.0,27.0,29.55,East,94,5.0,13.0,94,0.00,,,0.01,,2013-01-18 13:42:00,
2013-01-18 13:52:00,28.0,27.0,29.55,East,94,5.0,13.0,94,0.00,,,0.01,,2013-01-18 13:52:00,
2013-01-18 14:03:00,28.0,27.0,29.54,East,90,4.0,11.0,94,0.00,,,0.01,,2013-01-18 14:03:00,
2013-01-18 14:12:00,28.0,27.0,29.54,East,90,4.0,11.0,94,0.00,,,0.01,,2013-01-18 14:12:00,
2013-01-18 14:22:00,28.0,27.0,29.53,East,100,4.0,12.0,94,0.00,,,0.01,,2013-01-18 14:22:00,
2013-01-18 14:33:00,28.0,27.0,29.53,East,100,4.0,12.0,94,0.00,,,0.01,,2013-01-18 14:33:00,
2013-01-18 14:42:00,28.0,27.0,29.53,East,100,4.0,12.0,94,0.00,,,0.01,,2013-01-18 14:42:00,
2013-01-18 14:53:00,29.0,27.0,29.52,East,97,4.0,12.0,94,0.00,,,0.01,,2013-01-18 14:53:00,
2013-01-18 15:02:00,29.0,27.0,29.50,East,99,5.0,12.0,94,0.00,,,0.00,,2013-01-18 15:02:00,
2013-01-18 15:12:00,29.0,27.0,29.50,East,99,5.0,12.0,94,0.00,,,0.00,,2013-01-18 15:12:00,
2013-01-18 15:22:00,29.0,27.0,29.50,East,101,5.0,13.0,93,0.00,,,0.00,,2013-01-18 15:22:00,
2013-01-18 15:33:00,29.0,27.0,29.50,East,101,5.0,13.0,93,0.00,,,0.00,,2013-01-18 15:33:00,
2013-01-18 15:42:00,29.0,27.0,29.50,East,101,5.0,13.0,93,0.00,,,0.00,,2013-01-18 15:42:00,
2013-01-18 15:53:00,29.0,27.0,29.49,East,98,6.0,17.0,92,0.00,,,0.00,,2013-01-18 15:53:00,
2013-01-18 16:02:00,29.0,27.0,29.49,East,98,4.0,12.0,91,0.00,,,0.00,,2013-01-18 16:02:00,
2013-01-18 16:12:00,29.0,27.0,29.49,East,98,4.0,12.0,91,0.00,,,0.00,,2013-01-18 16:12:00,
2013-01-18 16:22:00,29.0,27.0,29.49,East,98,4.0,12.0,91,0.00,,,0.00,,2013-01-18 16:22:00,
2013-01-18 16:32:00,29.0,26.0,29.48,East,94,3.0,9.0,90,0.00,,,0.00,,2013-01-18 16:32:00,
2013-01-18 16:42:00,29.0,26.0,29.48,East,94,3.0,9.0,90,0.00,,,0.00,,2013-01-18 16:42:00,
2013-01-18 16:53:00,29.0,26.0,29.48,East,100,4.0,11.0,89,0.00,,,0.00,,2013-01-18 16:53:00,
2013-01-18 17:02:00,29.0,26.0,29.48,East,96,4.0,13.0,89,0.00,,,0.00,,2013-01-18 17:02:00,
2013-01-18 17:12:00,29.0,26.0,29.48,East,96,4.0,13.0,89,0.00,,,0.00,,2013-01-18 17:12:00,
2013-01-18 17:22:00,29.0,26.0,29.48,East,96,4.0,13.0,89,0.00,,,0.00,,2013-01-18 17:22:00,
2013-01-18 17:33:00,29.0,26.0,29.48,East,99,5.0,11.0,89,0.00,,,0.00,,2013-01-18 17:33:00,
2013-01-18 17:42:00,29.0,26.0,29.48,East,99,5.0,11.0,89,0.00,,,0.00,,2013-01-18 17:42:00,
2013-01-18 17:53:00,29.0,26.0,29.48,East,98,4.0,16.0,90,0.00,,,0.00,,2013-01-18 17:53:00,
2013-01-18 18:03:00,29.0,26.0,29.48,East,98,4.0,16.0,90,0.00,,,0.00,,2013-01-18 18:03:00,
2013-01-18 18:12:00,29.0,26.0,29.48,East,98,4.0,16.0,90,0.00,,,0.00,,2013-01-18 18:12:00,
2013-01-18 18:22:00,30.0,27.0,29.47,East,97,3.0,10.0,90,0.00,,,0.00,,2013-01-18 18:22:00,
2013-01-18 18:32:00,30.0,27.0,29.47,East,94,4.0,12.0,90,0.00,,,0.00,,2013-01-18 18:32:00,
2013-01-18 18:43:00,30.0,27.0,29.47,East,94,4.0,12.0,90,0.00,,,0.00,,2013-01-18 18:43:00,
2013-01-18 18:52:00,30.0,27.0,29.47,East,98,4.0,12.0,89,0.00,,,0.00,,2013-01-18 18:52:00,
2013-01-18 19:02:00,30.0,27.0,29.47,East,98,4.0,12.0,89,0.00,,,0.00,,2013-01-18 19:02:00,
2013-01-18 19:12:00,30.0,27.0,29.47,East,98,4.0,12.0,89,0.00,,,0.00,,2013-01-18 19:12:00,
2013-01-18 19:22:00,30.0,27.0,29.46,East,96,3.0,9.0,89,0.00,,,0.00,,2013-01-18 19:22:00,
2013-01-18 19:32:00,30.0,27.0,29.46,East,96,4.0,10.0,89,0.00,,,0.00,,2013-01-18 19:32:00,
2013-01-18 19:42:00,30.0,27.0,29.46,East,96,4.0,10.0,89,0.00,,,0.00,,2013-01-18 19:42:00,
2013-01-18 19:52:00,30.0,27.0,29.46,East,96,4.0,10.0,89,0.00,,,0.00,,2013-01-18 19:52:00,
2013-01-18 20:02:00,30.0,27.0,29.46,East,101,4.0,13.0,89,0.00,,,0.00,,2013-01-18 20:02:00,
2013-01-18 20:12:00,30.0,27.0,29.46,East,101,4.0,13.0,89,0.00,,,0.00,,2013-01-18 20:12:00,
2013-01-18 20:22:00,30.0,27.0,29.46,East,95,3.0,10.0,89,0.00,,,0.00,,2013-01-18 20:22:00,
2013-01-18 20:33:00,30.0,27.0,29.45,East,99,3.0,11.0,89,0.00,,,0.00,,2013-01-18 20:33:00,
2013-01-18 20:42:00,30.0,27.0,29.45,East,99,3.0,11.0,89,0.00,,,0.00,,2013-01-18 20:42:00,
2013-01-18 20:52:00,30.0,27.0,29.45,East,99,3.0,11.0,89,0.00,,,0.00,,2013-01-18 20:52:00,
2013-01-18 21:02:00,31.0,28.0,29.45,East,98,3.0,10.0,89,0.00,,,0.00,,2013-01-18 21:02:00,
2013-01-18 21:11:00,31.0,28.0,29.45,East,98,3.0,10.0,89,0.00,,,0.00,,2013-01-18 21:11:00,
2013-01-18 21:22:00,31.0,28.0,29.45,ESE,102,4.0,10.0,89,0.00,,,0.00,,2013-01-18 21:22:00,
2013-01-18 21:33:00,31.0,28.0,29.45,ESE,102,4.0,10.0,89,0.00,,,0.00,,2013-01-18 21:33:00,
2013-01-18 21:42:00,31.0,28.0,29.45,ESE,102,4.0,10.0,89,0.00,,,0.00,,2013-01-18 21:42:00,
2013-01-18 21:52:00,31.0,28.0,29.44,East,97,5.0,11.0,88,0.00,,,0.00,,2013-01-18 21:52:00,
2013-01-18 22:02:00,31.0,28.0,29.44,ESE,102,4.0,10.0,88,0.00,,,0.00,,2013-01-18 22:02:00,
2013-01-18 22:12:00,31.0,28.0,29.44,ESE,102,4.0,10.0,88,0.00,,,0.00,,2013-01-18 22:12:00,
2013-01-18 22:22:00,31.0,28.0,29.44,East,98,4.0,12.0,88,0.00,,,0.00,,2013-01-18 22:22:00,
2013-01-18 22:32:00,31.0,28.0,29.44,East,98,4.0,12.0,88,0.00,,,0.00,,2013-01-18 22:32:00,
2013-01-18 22:42:00,31.0,28.0,29.44,East,98,4.0,12.0,88,0.00,,,0.00,,2013-01-18 22:42:00,
2013-01-18 22:52:00,31.0,28.0,29.44,East,96,4.0,12.0,89,0.00,,,0.00,,2013-01-18 22:52:00,
2013-01-18 23:02:00,31.0,28.0,29.44,East,96,4.0,9.0,90,0.00,,,0.00,,2013-01-18 23:02:00,
2013-01-18 23:12:00,31.0,28.0,29.44,East,96,4.0,9.0,90,0.00,,,0.00,,2013-01-18 23:12:00,
2013-01-18 23:22:00,31.0,28.0,29.44,East,96,4.0,9.0,90,0.00,,,0.00,,2013-01-18 23:22:00,
2013-01-18 23:32:00,31.0,28.0,29.44,East,99,4.0,12.0,89,0.00,,,0.00,,2013-01-18 23:32:00,
2013-01-18 23:42:00,31.0,28.0,29.44,East,99,4.0,12.0,89,0.00,,,0.00,,2013-01-18 23:42:00,
2013-01-18 23:53:00,31.0,28.0,29.44,East,96,3.0,10.0,90,0.00,,,0.00,,2013-01-18 23:53:00,